Terminal Aerodrome Forecast
Issued by NWS Tuscon, AZ

Home | Current Version | Previous Version | Text Only | Print | Product List | Glossary On
Versions: 1 2 3 4 5 6 7 8 9 10 11 12
000
FTUS45 KTWC 191721
TAFTUS
TAF
KTUS 191721Z 1918/2018 35007KT P6SM SCT120 BKN200
     FM192000 31009KT P6SM SCT100 BKN200
     FM200300 17008KT P6SM SCT120 BKN200=

USA.gov is the U.S. government's official web portal to all federal, state and local government web resources and services.